Weather Roundup
Issued by NWS Springfield, MO

Home | Current Version | Previous Version | Text Only | Print | Product List | Glossary On
Versions: 1 2 3 4 5 6 7 8 9 10 11 12 13 14 15 16 17 18 19 20 21 22 23 24 25 26 27 28 29 30 31 32 33 34 35 36 37 38 39 40 41 42 43 44 45 46 47 48 49 50
000
NZUS99 KSGF 250857
HRRSGF

HOURLY WEATHER
NATIONAL WEATHER SERVICE SPRINGFIELD MO
400 AM CDT SAT MAR 25 2017

......SGF CWA......

CITY           SKY/WX    TMP DP  RH WIND       PRES   REMARKS
SPRINGFIELD    PTCLDY    52  50  93 SE13      29.76F
JOPLIN         CLEAR     53  52  96 E6        29.73F
WEST PLAINS    CLOUDY    53  52  96 E6        29.85R
ROLLA          CLOUDY    53  52  96 SE12      29.78S

......SURROUNDING SGF CWA......

CITY           SKY/WX    TMP DP  RH WIND       PRES   REMARKS
CHANUTE        CLOUDY    53  51  93 W9        29.76F
PARSONS        CLOUDY    53  51  93 N9        29.72F
COFFEYVILLE    CLOUDY    54  51  90 NW15      29.70F
EMPORIA        LGT RAIN  45  45 100 NW15      29.79F FOG
HARRISON AR    CLOUDY    52  52 100 E5        29.77F

......KANSAS AND MISSOURI......

CITY           SKY/WX    TMP DP  RH WIND       PRES   REMARKS
KANSAS CTY INT CLOUDY    52  52 100 NW6       29.75F FOG
SEDALIA        CLOUDY    54  50  86 E5        29.79S
ST JOSEPH      RAIN      48  48 100 N12       29.78F FOG
ST LOUIS       LGT RAIN  60  57  89 SE7       29.83F
WICHITA        LGT RAIN  43  42  97 NW21G30   29.85F
TOPEKA         CLOUDY    47  47 100 NW10G21   29.79F FOG
OLATHE         CLOUDY    54  54 100 NW5       29.74S FOG

......TENNESSEE......

CITY           SKY/WX    TMP DP  RH WIND       PRES   REMARKS
MEMPHIS        NOT AVBL
NASHVILLE      CLOUDY    65  51  60 S14       30.09S

......ARKANSAS.......

CITY           SKY/WX    TMP DP  RH WIND       PRES   REMARKS
FAYETTEVILLE   PTCLDY    51  51 100 CALM      29.74S
FT SMITH       CLEAR     55  53  93 NE8       29.74S
LITTLE ROCK    CLOUDY    58  58 100 E5        29.83S

......OKLAHOMA.......

CITY           SKY/WX    TMP DP  RH WIND       PRES   REMARKS
TULSA          LGT RAIN  54  52  93 NE13      29.74R
PONCA CITY     CLOUDY    49  43  80 NW15G23   29.85R
MCALESTER      PTCLDY    54  46  74 SW8       29.76R
OKLAHOMA CITY  CLOUDY    49  45  86 NW25G32   29.87R

......IOWA............

CITY           SKY/WX    TMP DP  RH WIND       PRES   REMARKS
DES MOINES     NOT AVBL
QUAD CITIES    CLOUDY    44  40  85 NE18      29.95F

......ILLINOIS........

CITY           SKY/WX    TMP DP  RH WIND       PRES   REMARKS
QUINCY         NOT AVBL
CHICAGO        CLOUDY    41  36  82 NE9       30.04F



USA.gov is the U.S. government's official web portal to all federal, state and local government web resources and services.